Flag for Morocco Weather past 2 weeks in Rabat, Morocco

Now
75 °F

Clear.


Feels Like: 76 °F
Forecast: 72 / 87 °F
Wind: 1 mph from Northwest

Location: Rabat-Sale

Current Time: Aug 28, 2015 at 8:52:35 PM

Latest Report: Aug 28, 2015 at 8:30 PM


Visibility: 10 mi

Pressure: 29.86 "Hg

Humidity: 78%

Dew point: 68 °F

Location of RabatLocation

Historic Weather in Rabat — Graph

°F

Rabat temperature yesterday

Maximum temperature yesterday: 79 °F (at 1:00 PM)
Minimum temperature yesterday: 61 °F (at 6:30 AM)
Average temperature yesterday: 70 °F

Past Weeks' High & Low Weather Summary

 TemperatureHumidityPressure
High82 °F (Aug 28, 5:00 PM)94% (Aug 15, 2:00 AM)30.18 "Hg (Aug 15, 2:00 AM)
Low55 °F (Aug 15, 3:30 AM)45% (Aug 24, 3:00 PM)29.83 "Hg (Aug 28, 5:30 PM)
Average71 °F75%30.02 "Hg
* Reported Aug 13 7:00 PM — Aug 28 7:30 PM, Rabat, Weather by CustomWeather, © 2015

Note: Actual official high and low records may vary slightly from our data, if they occured in-between our weather recording intervals... More about our weather records

Advertising

Rabat weather history for previous 24 hours

 ConditionsComfort  
Time TempWeatherWind HumidityBarometerVisibility
7:30 PM
Fri, Aug 28
79 °FSunny.5 mph70%29.83 "Hg10 mi
7:00 PM82 °FClear.3 mph58%29.83 "Hg6 mi
6:30 PM82 °FClear.3 mph62%29.86 "Hg6 mi
6:00 PM82 °FClear.7 mph62%29.83 "Hg6 mi
5:30 PM81 °FClear.8 mph66%29.83 "Hg5 mi
5:00 PM82 °FClear.9 mph58%29.86 "Hg5 mi
4:30 PM81 °FClear.9 mph62%29.86 "Hg5 mi
4:00 PM81 °FClear.8 mph66%29.86 "Hg6 mi
3:30 PM81 °FPassing clouds.9 mph62%29.86 "HgN/A
3:00 PM81 °FPassing clouds.8 mph62%29.89 "HgN/A
2:00 PM81 °FPassing clouds.8 mph58%29.89 "HgN/A
1:30 PM81 °FPassing clouds.8 mph62%29.89 "HgN/A
1:00 PM79 °FClear.7 mph70%29.89 "Hg4 mi
12:30 PM79 °FClear.7 mph70%29.92 "Hg4 mi
12:00 PM79 °FClear.7 mph70%29.92 "Hg4 mi
11:30 AM79 °FPassing clouds.7 mph70%29.92 "Hg4 mi
11:00 AM77 °FPassing clouds.5 mph74%29.92 "Hg4 mi
10:30 AM77 °FScattered clouds.3 mph69%29.92 "Hg4 mi
10:00 AM77 °FScattered clouds.1 mph69%29.92 "Hg4 mi
9:30 AM73 °FScattered clouds.1 mph83%29.92 "Hg3 mi
9:00 AM72 °FFog.No wind88%29.92 "Hg2 mi
8:30 AM70 °FFog.No wind94%29.92 "Hg2 mi
8:00 AM66 °FFog.No wind94%29.92 "Hg2 mi
7:30 AM63 °FFog.No wind94%29.92 "Hg1 mi
7:00 AM63 °FFog.No wind94%29.89 "Hg1 mi
6:30 AM63 °FPassing clouds.No wind94%29.89 "Hg3 mi
6:00 AM64 °FPassing clouds.No wind94%29.89 "Hg3 mi
5:30 AM64 °FPassing clouds.No wind94%29.92 "Hg3 mi
5:00 AM66 °FPassing clouds.3 mph94%29.92 "Hg3 mi
4:00 AM64 °FPassing clouds.No wind94%29.95 "Hg3 mi
3:30 AM66 °FPassing clouds.2 mph94%29.95 "Hg3 mi
3:00 AM66 °FPassing clouds.3 mph94%29.95 "Hg3 mi
2:30 AM64 °FPassing clouds.1 mph94%29.95 "Hg3 mi
2:00 AM64 °FPassing clouds.No wind94%29.98 "Hg3 mi
1:30 AM68 °FPassing clouds.2 mph94%29.98 "Hg3 mi
1:00 AM66 °FPassing clouds.2 mph94%29.98 "Hg3 mi
12:00 AM70 °FPassing clouds.No wind88%29.98 "Hg3 mi
11:00 PM
Thu, Aug 27
70 °FPassing clouds.2 mph88%30.01 "Hg3 mi
10:30 PM70 °FPassing clouds.1 mph88%30.01 "Hg3 mi
10:00 PM72 °FPassing clouds.2 mph88%30.01 "Hg3 mi
9:30 PM73 °FPartly cloudy.2 mph83%29.98 "Hg3 mi
9:00 PM73 °FOvercast.5 mph83%29.98 "Hg3 mi
8:30 PM73 °FOvercast.7 mph83%29.95 "Hg3 mi
8:00 PM73 °FOvercast.6 mph78%29.95 "Hg5 mi
Weather by CustomWeather, © 2015

See weather overviewHow to use our weather pages